GFSCGP_prec_pwat_336.txt.gz
Precipitable_Water
0.21 0.13 0.11 0.14 0.16 0.15 0.13 0.11 0.09 0.10 0.12 0.14 0.13 0.13 0.13 0.13 0.16 0.17 0.18 0.18 0.18 0.19 0.21 0.23 0.25 0.30 0.35 0.40 0.45 0.54 0.64 0.74 0.86 0.91 0.96 1.02 1.05 1.16 1.17 1.16 1.18 1.21 1.23 1.24
0.16 0.11 0.18 0.18 0.16 0.14 0.12 0.11 0.10 0.13 0.16 0.16 0.14 0.12 0.14 0.15 0.15 0.19 0.20 0.19 0.19 0.19 0.20 0.21 0.23 0.26 0.31 0.37 0.42 0.50 0.59 0.72 0.85 0.90 0.92 0.96 1.01 1.06 1.11 1.14 1.12 1.12 1.15 1.15
0.14 0.17 0.21 0.17 0.16 0.15 0.15 0.14 0.13 0.13 0.16 0.16 0.14 0.12 0.14 0.15 0.18 0.20 0.21 0.21 0.20 0.19 0.19 0.20 0.21 0.23 0.29 0.34 0.40 0.46 0.56 0.68 0.79 0.89 0.92 0.89 0.92 0.97 0.98 1.02 1.06 1.10 1.08 1.08
0.17 0.23 0.20 0.18 0.16 0.17 0.13 0.21 0.18 0.16 0.14 0.11 0.16 0.08 0.11 0.13 0.17 0.19 0.20 0.19 0.18 0.19 0.19 0.20 0.20 0.21 0.25 0.30 0.38 0.44 0.50 0.60 0.71 0.83 0.87 0.84 0.78 0.75 0.85 0.91 0.98 1.04 1.09 1.06
0.20 0.21 0.19 0.17 0.19 0.22 0.18 0.22 0.18 0.16 0.14 0.14 0.11 0.11 0.11 0.14 0.15 0.18 0.20 0.20 0.19 0.19 0.18 0.17 0.18 0.19 0.21 0.24 0.28 0.35 0.44 0.51 0.61 0.72 0.82 0.83 0.80 0.80 0.86 0.89 0.96 0.96 1.01 1.07
0.21 0.27 0.22 0.21 0.23 0.22 0.23 0.18 0.16 0.17 0.16 0.10 0.12 0.13 0.12 0.14 0.16 0.18 0.20 0.19 0.18 0.18 0.18 0.18 0.18 0.18 0.19 0.21 0.22 0.23 0.26 0.34 0.45 0.56 0.69 0.76 0.82 0.81 0.81 0.88 0.87 0.94 0.98 1.00
0.20 0.19 0.24 0.23 0.18 0.22 0.21 0.16 0.10 0.10 0.12 0.10 0.18 0.14 0.14 0.18 0.20 0.19 0.18 0.18 0.18 0.19 0.18 0.18 0.18 0.19 0.21 0.22 0.24 0.25 0.24 0.24 0.26 0.30 0.41 0.58 0.73 0.83 0.86 0.85 0.88 0.91 0.89 0.92
0.14 0.13 0.20 0.22 0.18 0.17 0.19 0.17 0.11 0.09 0.08 0.09 0.13 0.09 0.11 0.18 0.20 0.21 0.20 0.20 0.20 0.20 0.20 0.20 0.21 0.22 0.24 0.25 0.27 0.28 0.29 0.29 0.30 0.30 0.29 0.31 0.39 0.52 0.69 0.82 0.89 0.87 0.93 0.93
0.15 0.15 0.21 0.20 0.20 0.18 0.18 0.14 0.20 0.16 0.14 0.10 0.10 0.12 0.17 0.21 0.20 0.20 0.19 0.20 0.20 0.21 0.22 0.22 0.24 0.26 0.27 0.28 0.29 0.30 0.31 0.31 0.31 0.32 0.33 0.33 0.33 0.35 0.37 0.46 0.60 0.69 0.79 0.83
0.19 0.12 0.18 0.19 0.20 0.18 0.16 0.21 0.13 0.15 0.09 0.07 0.08 0.09 0.10 0.15 0.18 0.20 0.20 0.20 0.21 0.22 0.22 0.24 0.26 0.28 0.31 0.31 0.31 0.30 0.31 0.31 0.31 0.32 0.32 0.32 0.33 0.34 0.35 0.37 0.40 0.44 0.51 0.61
0.20 0.16 0.15 0.17 0.15 0.14 0.17 0.15 0.16 0.15 0.13 0.10 0.08 0.08 0.14 0.16 0.20 0.20 0.22 0.22 0.22 0.23 0.24 0.25 0.28 0.29 0.31 0.33 0.33 0.32 0.31 0.30 0.30 0.31 0.31 0.30 0.31 0.32 0.31 0.32 0.35 0.37 0.41 0.46
0.20 0.18 0.12 0.12 0.16 0.17 0.15 0.14 0.15 0.12 0.09 0.11 0.12 0.08 0.17 0.20 0.22 0.25 0.26 0.26 0.25 0.24 0.26 0.27 0.28 0.29 0.29 0.31 0.31 0.33 0.33 0.31 0.30 0.28 0.28 0.27 0.27 0.28 0.29 0.29 0.30 0.31 0.32 0.36
0.18 0.14 0.09 0.10 0.14 0.14 0.11 0.13 0.12 0.13 0.15 0.10 0.10 0.09 0.15 0.18 0.21 0.24 0.26 0.30 0.29 0.27 0.27 0.29 0.30 0.29 0.29 0.30 0.29 0.28 0.28 0.27 0.25 0.23 0.21 0.19 0.18 0.19 0.21 0.24 0.27 0.28 0.28 0.29
0.20 0.15 0.11 0.08 0.08 0.10 0.09 0.11 0.12 0.11 0.10 0.10 0.10 0.11 0.12 0.15 0.18 0.21 0.24 0.28 0.29 0.26 0.23 0.24 0.24 0.25 0.26 0.26 0.26 0.24 0.21 0.21 0.23 0.24 0.21 0.17 0.16 0.15 0.14 0.15 0.17 0.20 0.24 0.26
0.17 0.11 0.12 0.12 0.12 0.12 0.11 0.11 0.11 0.10 0.11 0.10 0.10 0.11 0.12 0.14 0.16 0.18 0.19 0.20 0.19 0.23 0.23 0.23 0.22 0.21 0.21 0.21 0.21 0.21 0.19 0.18 0.19 0.19 0.21 0.21 0.19 0.18 0.16 0.14 0.14 0.14 0.14 0.17
0.17 0.11 0.12 0.10 0.11 0.11 0.09 0.11 0.10 0.10 0.11 0.11 0.11 0.11 0.14 0.15 0.16 0.15 0.16 0.18 0.18 0.21 0.24 0.25 0.24 0.21 0.20 0.20 0.20 0.20 0.18 0.19 0.19 0.17 0.17 0.19 0.20 0.19 0.18 0.16 0.15 0.13 0.13 0.13
0.14 0.12 0.11 0.07 0.10 0.09 0.07 0.09 0.10 0.10 0.11 0.11 0.09 0.10 0.12 0.12 0.13 0.15 0.15 0.15 0.15 0.16 0.17 0.15 0.16 0.17 0.18 0.19 0.20 0.18 0.18 0.18 0.17 0.16 0.15 0.16 0.17 0.17 0.16 0.16 0.16 0.14 0.13 0.13
0.14 0.13 0.12 0.09 0.10 0.05 0.09 0.12 0.12 0.10 0.09 0.10 0.10 0.10 0.10 0.11 0.13 0.14 0.16 0.15 0.15 0.16 0.15 0.16 0.17 0.17 0.19 0.20 0.19 0.19 0.19 0.18 0.17 0.16 0.15 0.15 0.16 0.16 0.18 0.16 0.14 0.14 0.14 0.13
0.17 0.13 0.10 0.08 0.08 0.09 0.08 0.09 0.08 0.09 0.08 0.12 0.11 0.11 0.12 0.12 0.11 0.11 0.15 0.16 0.16 0.16 0.15 0.17 0.17 0.18 0.18 0.18 0.18 0.17 0.16 0.17 0.18 0.17 0.16 0.16 0.16 0.15 0.15 0.16 0.14 0.14 0.14 0.13
0.16 0.16 0.11 0.10 0.08 0.06 0.07 0.11 0.13 0.13 0.08 0.14 0.14 0.14 0.14 0.13 0.10 0.14 0.18 0.18 0.18 0.19 0.20 0.18 0.20 0.20 0.20 0.19 0.19 0.17 0.16 0.16 0.16 0.17 0.19 0.19 0.19 0.17 0.16 0.16 0.16 0.15 0.15 0.13
0.11 0.11 0.09 0.09 0.08 0.08 0.11 0.13 0.14 0.08 0.09 0.16 0.17 0.16 0.15 0.14 0.17 0.19 0.20 0.21 0.23 0.23 0.21 0.22 0.22 0.21 0.21 0.21 0.21 0.19 0.18 0.18 0.18 0.17 0.17 0.19 0.20 0.20 0.18 0.18 0.19 0.17 0.16 0.15
0.09 0.09 0.08 0.08 0.07 0.05 0.14 0.13 0.10 0.13 0.16 0.16 0.16 0.16 0.15 0.15 0.16 0.17 0.19 0.21 0.22 0.22 0.22 0.21 0.20 0.21 0.21 0.21 0.21 0.19 0.19 0.20 0.19 0.18 0.17 0.16 0.17 0.19 0.21 0.20 0.19 0.18 0.17 0.16
0.09 0.09 0.07 0.08 0.08 0.13 0.15 0.14 0.16 0.16 0.15 0.16 0.16 0.16 0.16 0.15 0.14 0.14 0.14 0.16 0.18 0.20 0.20 0.21 0.20 0.19 0.20 0.20 0.19 0.18 0.19 0.19 0.18 0.17 0.16 0.15 0.15 0.16 0.20 0.21 0.20 0.19 0.18 0.16
0.11 0.11 0.08 0.08 0.10 0.12 0.14 0.16 0.16 0.16 0.16 0.16 0.16 0.15 0.15 0.14 0.15 0.14 0.14 0.13 0.14 0.16 0.17 0.18 0.18 0.17 0.17 0.17 0.17 0.16 0.16 0.17 0.17 0.16 0.16 0.15 0.15 0.15 0.16 0.20 0.22 0.22 0.19 0.17
0.10 0.11 0.09 0.09 0.11 0.12 0.14 0.14 0.15 0.15 0.17 0.16 0.15 0.15 0.14 0.14 0.14 0.14 0.12 0.12 0.12 0.13 0.14 0.14 0.14 0.13 0.13 0.13 0.13 0.14 0.15 0.15 0.14 0.14 0.15 0.15 0.15 0.15 0.15 0.16 0.19 0.22 0.23 0.22
0.10 0.09 0.08 0.07 0.11 0.11 0.12 0.15 0.16 0.15 0.14 0.14 0.13 0.13 0.14 0.13 0.13 0.12 0.11 0.11 0.11 0.11 0.11 0.12 0.12 0.12 0.12 0.12 0.12 0.13 0.13 0.13 0.12 0.12 0.13 0.14 0.15 0.15 0.15 0.16 0.17 0.21 0.25 0.27

GFSCGP_prec_pwat_339.txt.gz
Precipitable_Water
0.23 0.13 0.12 0.15 0.17 0.16 0.14 0.12 0.10 0.11 0.12 0.14 0.13 0.15 0.15 0.15 0.17 0.18 0.20 0.21 0.22 0.22 0.23 0.23 0.24 0.28 0.32 0.36 0.37 0.41 0.47 0.55 0.71 0.83 0.85 0.89 0.94 1.06 1.13 1.21 1.24 1.21 1.21 1.23
0.17 0.13 0.20 0.21 0.19 0.16 0.13 0.11 0.11 0.14 0.17 0.17 0.14 0.13 0.13 0.16 0.17 0.19 0.20 0.21 0.22 0.23 0.22 0.21 0.22 0.26 0.30 0.33 0.36 0.39 0.46 0.54 0.63 0.78 0.90 0.93 0.93 1.01 1.08 1.15 1.16 1.18 1.17 1.17
0.15 0.20 0.22 0.19 0.17 0.15 0.15 0.14 0.15 0.15 0.18 0.18 0.15 0.11 0.13 0.14 0.17 0.20 0.22 0.23 0.23 0.22 0.20 0.20 0.21 0.23 0.27 0.30 0.35 0.39 0.45 0.51 0.60 0.71 0.85 0.90 0.92 0.94 0.94 1.00 1.04 1.09 1.13 1.14
0.20 0.25 0.22 0.19 0.17 0.19 0.14 0.21 0.19 0.17 0.14 0.10 0.16 0.08 0.11 0.13 0.17 0.20 0.22 0.23 0.22 0.20 0.20 0.19 0.19 0.20 0.22 0.25 0.32 0.39 0.44 0.50 0.57 0.66 0.73 0.77 0.79 0.77 0.83 0.88 0.97 1.02 1.06 1.10
0.22 0.23 0.21 0.18 0.20 0.22 0.17 0.21 0.17 0.15 0.14 0.14 0.13 0.11 0.12 0.17 0.16 0.18 0.19 0.19 0.20 0.20 0.19 0.18 0.18 0.18 0.20 0.21 0.23 0.28 0.39 0.45 0.53 0.61 0.67 0.72 0.76 0.82 0.86 0.85 0.87 0.87 0.97 1.01
0.23 0.28 0.24 0.22 0.24 0.23 0.22 0.18 0.16 0.17 0.16 0.10 0.14 0.14 0.13 0.15 0.15 0.16 0.18 0.18 0.19 0.20 0.20 0.19 0.19 0.19 0.20 0.21 0.21 0.22 0.22 0.26 0.37 0.49 0.60 0.67 0.71 0.76 0.80 0.82 0.80 0.88 0.93 0.96
0.23 0.23 0.26 0.25 0.19 0.23 0.21 0.15 0.08 0.09 0.09 0.08 0.15 0.14 0.13 0.15 0.18 0.17 0.17 0.20 0.21 0.21 0.20 0.19 0.18 0.20 0.22 0.23 0.25 0.26 0.25 0.25 0.27 0.27 0.32 0.44 0.57 0.70 0.76 0.81 0.80 0.85 0.87 0.94
0.16 0.15 0.22 0.23 0.19 0.16 0.17 0.16 0.09 0.07 0.07 0.07 0.13 0.07 0.09 0.16 0.19 0.20 0.20 0.21 0.22 0.22 0.22 0.21 0.21 0.22 0.24 0.26 0.28 0.29 0.29 0.29 0.29 0.29 0.30 0.31 0.31 0.39 0.53 0.72 0.80 0.80 0.86 0.89
0.17 0.16 0.22 0.21 0.20 0.18 0.18 0.14 0.20 0.14 0.15 0.10 0.09 0.11 0.15 0.15 0.16 0.17 0.17 0.17 0.19 0.21 0.23 0.22 0.23 0.25 0.27 0.28 0.30 0.30 0.30 0.30 0.30 0.30 0.30 0.30 0.31 0.30 0.30 0.35 0.50 0.66 0.77 0.81
0.20 0.13 0.19 0.19 0.19 0.19 0.17 0.20 0.12 0.14 0.07 0.06 0.07 0.07 0.08 0.13 0.13 0.15 0.18 0.20 0.22 0.23 0.24 0.25 0.25 0.25 0.28 0.31 0.33 0.32 0.31 0.30 0.31 0.31 0.31 0.30 0.30 0.29 0.29 0.30 0.30 0.34 0.42 0.54
0.20 0.15 0.15 0.17 0.14 0.12 0.14 0.14 0.15 0.15 0.13 0.08 0.07 0.06 0.13 0.13 0.17 0.18 0.21 0.22 0.23 0.23 0.25 0.26 0.27 0.27 0.29 0.32 0.33 0.32 0.32 0.32 0.31 0.30 0.30 0.29 0.29 0.29 0.29 0.28 0.29 0.30 0.35 0.39
0.20 0.17 0.11 0.12 0.16 0.18 0.17 0.15 0.15 0.11 0.08 0.12 0.11 0.08 0.13 0.16 0.18 0.18 0.20 0.25 0.26 0.24 0.24 0.25 0.28 0.29 0.29 0.29 0.31 0.32 0.34 0.34 0.33 0.31 0.28 0.26 0.26 0.28 0.27 0.29 0.31 0.30 0.28 0.31
0.19 0.14 0.08 0.08 0.13 0.15 0.12 0.12 0.12 0.13 0.12 0.08 0.08 0.07 0.14 0.14 0.15 0.18 0.19 0.20 0.25 0.30 0.29 0.29 0.32 0.30 0.31 0.31 0.30 0.30 0.31 0.31 0.32 0.30 0.27 0.23 0.20 0.20 0.21 0.21 0.21 0.25 0.31 0.29
0.20 0.14 0.09 0.07 0.08 0.11 0.10 0.11 0.12 0.11 0.08 0.08 0.08 0.09 0.10 0.11 0.13 0.14 0.15 0.17 0.18 0.22 0.25 0.26 0.25 0.26 0.26 0.24 0.22 0.23 0.25 0.27 0.26 0.23 0.23 0.23 0.24 0.21 0.18 0.18 0.17 0.17 0.19 0.22
0.17 0.10 0.12 0.12 0.12 0.12 0.11 0.10 0.10 0.09 0.09 0.08 0.07 0.08 0.09 0.11 0.13 0.12 0.13 0.14 0.15 0.16 0.21 0.23 0.24 0.25 0.27 0.25 0.25 0.25 0.23 0.23 0.23 0.21 0.19 0.19 0.21 0.23 0.22 0.19 0.17 0.16 0.15 0.15
0.18 0.11 0.12 0.09 0.11 0.11 0.09 0.09 0.09 0.09 0.09 0.08 0.09 0.08 0.12 0.12 0.12 0.11 0.12 0.13 0.13 0.15 0.21 0.24 0.24 0.24 0.25 0.25 0.23 0.21 0.21 0.22 0.22 0.20 0.19 0.18 0.18 0.20 0.21 0.21 0.20 0.18 0.16 0.15
0.13 0.12 0.10 0.08 0.11 0.09 0.06 0.07 0.08 0.08 0.08 0.08 0.07 0.09 0.11 0.11 0.10 0.12 0.14 0.14 0.13 0.15 0.17 0.15 0.16 0.17 0.18 0.18 0.18 0.18 0.18 0.20 0.19 0.19 0.19 0.19 0.18 0.17 0.18 0.20 0.20 0.18 0.17 0.18
0.14 0.13 0.12 0.09 0.09 0.05 0.08 0.11 0.10 0.08 0.09 0.10 0.10 0.11 0.12 0.12 0.14 0.15 0.17 0.17 0.18 0.17 0.16 0.17 0.19 0.19 0.20 0.20 0.19 0.18 0.17 0.17 0.17 0.18 0.19 0.20 0.20 0.18 0.18 0.18 0.18 0.18 0.17 0.17
0.17 0.14 0.11 0.08 0.07 0.08 0.08 0.08 0.08 0.07 0.07 0.11 0.11 0.12 0.13 0.14 0.14 0.15 0.18 0.20 0.20 0.20 0.20 0.20 0.21 0.21 0.21 0.21 0.21 0.21 0.20 0.19 0.18 0.17 0.17 0.18 0.19 0.20 0.19 0.18 0.17 0.18 0.17 0.17
0.18 0.17 0.12 0.10 0.07 0.05 0.07 0.09 0.11 0.10 0.06 0.13 0.14 0.13 0.14 0.14 0.10 0.12 0.17 0.19 0.21 0.23 0.23 0.23 0.23 0.22 0.22 0.21 0.22 0.21 0.20 0.20 0.20 0.19 0.19 0.19 0.18 0.17 0.19 0.20 0.18 0.18 0.19 0.17
0.13 0.14 0.11 0.10 0.08 0.07 0.10 0.11 0.12 0.07 0.07 0.14 0.14 0.14 0.14 0.12 0.14 0.16 0.17 0.16 0.18 0.20 0.20 0.23 0.22 0.22 0.23 0.23 0.22 0.19 0.19 0.19 0.20 0.20 0.20 0.19 0.18 0.17 0.17 0.19 0.22 0.20 0.19 0.18
0.12 0.11 0.10 0.10 0.08 0.04 0.11 0.11 0.08 0.11 0.14 0.14 0.14 0.15 0.14 0.15 0.15 0.15 0.15 0.15 0.16 0.16 0.17 0.18 0.17 0.18 0.20 0.21 0.20 0.18 0.18 0.19 0.19 0.18 0.18 0.18 0.17 0.17 0.17 0.16 0.17 0.22 0.21 0.19
0.12 0.12 0.10 0.09 0.06 0.10 0.13 0.12 0.14 0.14 0.13 0.14 0.14 0.15 0.14 0.14 0.13 0.14 0.14 0.15 0.16 0.16 0.15 0.15 0.14 0.15 0.16 0.17 0.17 0.16 0.17 0.17 0.16 0.16 0.16 0.15 0.16 0.17 0.17 0.16 0.16 0.17 0.21 0.21
0.15 0.15 0.11 0.10 0.09 0.11 0.13 0.14 0.14 0.14 0.14 0.14 0.14 0.14 0.13 0.12 0.12 0.12 0.12 0.13 0.13 0.12 0.12 0.12 0.12 0.12 0.12 0.14 0.14 0.14 0.14 0.14 0.14 0.13 0.13 0.14 0.14 0.15 0.16 0.17 0.17 0.16 0.17 0.18
0.14 0.13 0.10 0.09 0.10 0.12 0.13 0.14 0.14 0.14 0.14 0.14 0.14 0.13 0.12 0.12 0.11 0.11 0.11 0.11 0.11 0.12 0.12 0.11 0.11 0.11 0.11 0.12 0.13 0.13 0.13 0.13 0.12 0.12 0.12 0.12 0.13 0.13 0.14 0.15 0.16 0.17 0.19 0.20
0.14 0.11 0.09 0.06 0.10 0.10 0.11 0.14 0.14 0.13 0.13 0.13 0.12 0.11 0.11 0.11 0.11 0.11 0.11 0.12 0.12 0.12 0.12 0.12 0.12 0.12 0.12 0.12 0.12 0.12 0.13 0.12 0.12 0.11 0.11 0.11 0.11 0.11 0.12 0.12 0.13 0.16 0.17 0.17

GFSCGP_prec_pwat_342.txt.gz
Precipitable_Water
0.21 0.14 0.13 0.16 0.17 0.17 0.15 0.13 0.12 0.12 0.17 0.16 0.15 0.15 0.13 0.17 0.19 0.17 0.19 0.20 0.22 0.23 0.26 0.26 0.25 0.26 0.28 0.32 0.35 0.37 0.40 0.45 0.53 0.59 0.67 0.75 0.82 0.93 0.98 1.11 1.19 1.23 1.24 1.21
0.17 0.15 0.21 0.22 0.21 0.18 0.16 0.13 0.13 0.16 0.19 0.16 0.15 0.13 0.15 0.17 0.16 0.18 0.20 0.21 0.23 0.25 0.23 0.21 0.21 0.23 0.25 0.29 0.33 0.36 0.40 0.45 0.53 0.61 0.70 0.79 0.85 0.87 0.98 1.03 1.11 1.18 1.20 1.20
0.16 0.21 0.24 0.20 0.18 0.16 0.16 0.15 0.16 0.16 0.18 0.16 0.14 0.11 0.13 0.16 0.20 0.21 0.22 0.23 0.23 0.21 0.20 0.20 0.19 0.20 0.22 0.25 0.30 0.36 0.40 0.46 0.52 0.60 0.67 0.76 0.83 0.84 0.85 0.93 0.98 1.07 1.14 1.15
0.21 0.25 0.22 0.20 0.19 0.20 0.14 0.22 0.19 0.16 0.13 0.10 0.16 0.08 0.12 0.17 0.18 0.19 0.20 0.20 0.20 0.21 0.21 0.20 0.18 0.17 0.19 0.20 0.23 0.31 0.40 0.45 0.53 0.60 0.62 0.64 0.66 0.69 0.76 0.84 0.91 0.97 1.05 1.08
0.22 0.24 0.23 0.19 0.21 0.23 0.18 0.21 0.18 0.17 0.15 0.14 0.14 0.12 0.13 0.17 0.14 0.15 0.17 0.19 0.20 0.21 0.20 0.19 0.18 0.18 0.19 0.19 0.20 0.21 0.25 0.34 0.46 0.57 0.62 0.63 0.65 0.70 0.78 0.80 0.84 0.85 0.90 0.99
0.25 0.30 0.25 0.23 0.25 0.24 0.23 0.18 0.16 0.18 0.15 0.09 0.13 0.13 0.11 0.14 0.13 0.15 0.17 0.19 0.19 0.18 0.19 0.18 0.18 0.19 0.20 0.21 0.22 0.22 0.23 0.24 0.26 0.34 0.46 0.56 0.64 0.67 0.70 0.75 0.76 0.82 0.85 0.87
0.24 0.25 0.27 0.27 0.20 0.24 0.19 0.13 0.08 0.08 0.08 0.07 0.14 0.10 0.10 0.13 0.15 0.16 0.16 0.18 0.19 0.19 0.18 0.18 0.18 0.19 0.21 0.23 0.24 0.25 0.26 0.26 0.27 0.27 0.27 0.29 0.37 0.54 0.63 0.70 0.72 0.76 0.81 0.83
0.17 0.17 0.23 0.25 0.20 0.17 0.17 0.14 0.09 0.06 0.06 0.07 0.11 0.08 0.09 0.16 0.18 0.18 0.18 0.18 0.18 0.19 0.20 0.20 0.21 0.21 0.23 0.25 0.27 0.27 0.27 0.27 0.28 0.28 0.27 0.27 0.27 0.29 0.35 0.47 0.63 0.69 0.75 0.81
0.19 0.18 0.24 0.23 0.22 0.19 0.18 0.13 0.17 0.11 0.12 0.09 0.09 0.12 0.13 0.14 0.16 0.17 0.16 0.17 0.18 0.19 0.20 0.21 0.24 0.24 0.24 0.27 0.29 0.30 0.30 0.30 0.30 0.30 0.29 0.27 0.26 0.26 0.26 0.28 0.32 0.42 0.58 0.71
0.22 0.15 0.21 0.20 0.20 0.19 0.16 0.18 0.10 0.13 0.06 0.05 0.06 0.08 0.07 0.12 0.14 0.14 0.16 0.18 0.21 0.23 0.21 0.23 0.24 0.25 0.28 0.28 0.30 0.31 0.31 0.32 0.34 0.33 0.31 0.30 0.29 0.27 0.25 0.25 0.25 0.27 0.29 0.38
0.21 0.16 0.16 0.18 0.14 0.12 0.14 0.12 0.14 0.13 0.12 0.07 0.06 0.06 0.12 0.13 0.14 0.15 0.15 0.15 0.17 0.19 0.23 0.23 0.26 0.26 0.29 0.33 0.32 0.32 0.35 0.38 0.40 0.43 0.40 0.36 0.33 0.32 0.34 0.33 0.27 0.28 0.27 0.27
0.23 0.16 0.11 0.12 0.17 0.18 0.17 0.14 0.13 0.09 0.08 0.11 0.10 0.07 0.11 0.13 0.14 0.13 0.12 0.13 0.14 0.15 0.18 0.24 0.27 0.28 0.29 0.36 0.42 0.39 0.37 0.37 0.35 0.35 0.32 0.30 0.27 0.24 0.23 0.25 0.31 0.31 0.28 0.29
0.21 0.14 0.09 0.09 0.13 0.15 0.13 0.13 0.14 0.13 0.12 0.07 0.07 0.06 0.13 0.11 0.11 0.11 0.11 0.12 0.13 0.14 0.15 0.18 0.24 0.27 0.32 0.32 0.28 0.26 0.25 0.25 0.25 0.26 0.28 0.30 0.28 0.27 0.22 0.21 0.22 0.23 0.27 0.27
0.22 0.14 0.10 0.08 0.08 0.10 0.09 0.10 0.12 0.11 0.08 0.07 0.07 0.07 0.07 0.09 0.10 0.10 0.11 0.12 0.13 0.14 0.15 0.17 0.21 0.24 0.25 0.26 0.26 0.29 0.29 0.27 0.27 0.26 0.24 0.23 0.23 0.23 0.25 0.23 0.20 0.20 0.20 0.21
0.18 0.11 0.12 0.12 0.12 0.12 0.11 0.10 0.11 0.09 0.09 0.07 0.06 0.07 0.08 0.11 0.10 0.11 0.13 0.13 0.13 0.14 0.16 0.18 0.20 0.22 0.23 0.24 0.26 0.28 0.28 0.24 0.23 0.22 0.21 0.21 0.22 0.22 0.24 0.24 0.22 0.20 0.19 0.19
0.19 0.12 0.13 0.10 0.12 0.11 0.10 0.11 0.10 0.09 0.09 0.09 0.08 0.07 0.11 0.11 0.13 0.12 0.13 0.14 0.15 0.16 0.17 0.16 0.17 0.19 0.21 0.22 0.22 0.21 0.21 0.20 0.20 0.18 0.18 0.20 0.20 0.20 0.20 0.21 0.22 0.22 0.20 0.19
0.16 0.13 0.11 0.08 0.11 0.10 0.08 0.08 0.08 0.08 0.08 0.08 0.06 0.08 0.10 0.10 0.11 0.12 0.13 0.16 0.17 0.17 0.18 0.17 0.17 0.18 0.19 0.19 0.20 0.18 0.19 0.20 0.19 0.19 0.18 0.18 0.18 0.19 0.20 0.20 0.19 0.20 0.20 0.20
0.15 0.13 0.11 0.09 0.10 0.06 0.09 0.11 0.10 0.08 0.08 0.09 0.09 0.10 0.11 0.11 0.14 0.16 0.17 0.17 0.17 0.18 0.19 0.19 0.20 0.20 0.20 0.20 0.20 0.21 0.20 0.21 0.21 0.20 0.19 0.18 0.18 0.17 0.18 0.20 0.20 0.19 0.19 0.20
0.18 0.14 0.11 0.09 0.09 0.09 0.10 0.10 0.09 0.07 0.06 0.09 0.09 0.11 0.12 0.13 0.14 0.14 0.17 0.17 0.16 0.17 0.19 0.21 0.22 0.22 0.21 0.21 0.21 0.21 0.20 0.20 0.19 0.19 0.19 0.18 0.18 0.17 0.16 0.16 0.19 0.20 0.19 0.19
0.19 0.16 0.12 0.11 0.09 0.07 0.09 0.11 0.11 0.10 0.05 0.11 0.11 0.11 0.12 0.12 0.08 0.10 0.16 0.16 0.15 0.16 0.18 0.18 0.18 0.19 0.20 0.21 0.21 0.20 0.20 0.20 0.19 0.19 0.18 0.18 0.18 0.17 0.17 0.16 0.17 0.19 0.21 0.20
0.15 0.15 0.11 0.11 0.10 0.10 0.12 0.12 0.12 0.06 0.05 0.12 0.13 0.12 0.12 0.10 0.12 0.14 0.15 0.15 0.15 0.15 0.16 0.17 0.17 0.17 0.17 0.18 0.18 0.17 0.18 0.18 0.19 0.19 0.19 0.18 0.17 0.17 0.17 0.18 0.17 0.17 0.18 0.21
0.13 0.12 0.11 0.12 0.11 0.08 0.13 0.11 0.07 0.09 0.12 0.13 0.13 0.13 0.12 0.13 0.13 0.13 0.13 0.13 0.13 0.14 0.15 0.15 0.14 0.14 0.14 0.14 0.14 0.14 0.15 0.17 0.17 0.18 0.18 0.17 0.16 0.16 0.16 0.17 0.18 0.17 0.17 0.17
0.13 0.13 0.12 0.12 0.11 0.13 0.12 0.11 0.13 0.14 0.12 0.13 0.12 0.13 0.12 0.12 0.11 0.11 0.11 0.11 0.11 0.11 0.12 0.12 0.12 0.12 0.11 0.12 0.12 0.11 0.13 0.14 0.15 0.15 0.15 0.15 0.16 0.15 0.15 0.14 0.15 0.16 0.17 0.17
0.17 0.17 0.14 0.13 0.14 0.13 0.13 0.13 0.14 0.14 0.13 0.13 0.13 0.13 0.12 0.11 0.10 0.10 0.11 0.11 0.11 0.11 0.12 0.12 0.12 0.12 0.12 0.12 0.12 0.12 0.13 0.14 0.13 0.13 0.13 0.13 0.13 0.13 0.13 0.13 0.14 0.15 0.16 0.17
0.17 0.17 0.15 0.13 0.14 0.13 0.13 0.13 0.13 0.14 0.14 0.13 0.13 0.12 0.11 0.10 0.10 0.10 0.10 0.11 0.11 0.11 0.12 0.12 0.12 0.13 0.13 0.13 0.13 0.14 0.14 0.14 0.13 0.13 0.13 0.12 0.12 0.12 0.12 0.12 0.12 0.13 0.14 0.16
0.20 0.16 0.13 0.11 0.13 0.11 0.10 0.12 0.13 0.13 0.12 0.13 0.12 0.10 0.10 0.10 0.10 0.11 0.11 0.11 0.11 0.12 0.12 0.12 0.13 0.13 0.13 0.13 0.13 0.14 0.14 0.14 0.14 0.14 0.13 0.13 0.12 0.12 0.11 0.11 0.11 0.12 0.13 0.15

GFSCGP_prec_pwat_345.txt.gz
Precipitable_Water
0.22 0.16 0.14 0.17 0.18 0.17 0.16 0.14 0.12 0.14 0.20 0.17 0.15 0.14 0.15 0.18 0.18 0.18 0.21 0.22 0.23 0.23 0.23 0.23 0.22 0.23 0.23 0.26 0.31 0.36 0.38 0.42 0.46 0.50 0.57 0.62 0.65 0.75 0.87 0.91 1.00 1.10 1.15 1.22
0.19 0.17 0.22 0.23 0.21 0.18 0.16 0.14 0.15 0.18 0.20 0.16 0.16 0.13 0.17 0.18 0.19 0.21 0.21 0.21 0.21 0.21 0.22 0.21 0.19 0.19 0.19 0.20 0.24 0.30 0.37 0.44 0.49 0.54 0.59 0.68 0.74 0.77 0.80 0.86 0.97 1.00 1.07 1.15
0.17 0.22 0.25 0.21 0.18 0.17 0.18 0.16 0.16 0.15 0.18 0.19 0.16 0.12 0.14 0.18 0.20 0.21 0.20 0.21 0.20 0.20 0.19 0.18 0.16 0.16 0.16 0.16 0.18 0.21 0.29 0.40 0.48 0.56 0.62 0.65 0.71 0.74 0.73 0.76 0.82 0.94 0.99 1.05
0.21 0.26 0.22 0.21 0.20 0.20 0.15 0.22 0.19 0.17 0.14 0.10 0.17 0.08 0.12 0.15 0.17 0.18 0.18 0.18 0.17 0.17 0.17 0.16 0.15 0.14 0.15 0.16 0.17 0.18 0.19 0.25 0.38 0.51 0.59 0.60 0.60 0.59 0.65 0.72 0.77 0.84 0.93 0.98
0.23 0.24 0.24 0.21 0.22 0.23 0.18 0.22 0.19 0.17 0.15 0.14 0.14 0.10 0.11 0.15 0.14 0.14 0.15 0.16 0.17 0.18 0.18 0.18 0.18 0.18 0.17 0.18 0.19 0.19 0.19 0.19 0.21 0.26 0.39 0.56 0.61 0.63 0.67 0.70 0.72 0.77 0.82 0.89
0.26 0.32 0.27 0.25 0.26 0.24 0.24 0.19 0.16 0.18 0.15 0.09 0.13 0.10 0.08 0.12 0.14 0.14 0.15 0.16 0.17 0.18 0.19 0.19 0.19 0.20 0.20 0.21 0.22 0.22 0.22 0.22 0.22 0.22 0.22 0.25 0.33 0.49 0.54 0.60 0.63 0.69 0.73 0.78
0.25 0.26 0.28 0.28 0.22 0.25 0.19 0.13 0.09 0.08 0.07 0.07 0.13 0.09 0.08 0.15 0.15 0.14 0.13 0.15 0.17 0.17 0.17 0.17 0.19 0.20 0.21 0.23 0.24 0.26 0.26 0.25 0.26 0.25 0.24 0.24 0.22 0.24 0.31 0.43 0.56 0.62 0.67 0.70
0.19 0.19 0.25 0.27 0.22 0.17 0.17 0.13 0.09 0.06 0.06 0.06 0.11 0.07 0.09 0.16 0.16 0.16 0.17 0.18 0.17 0.16 0.18 0.19 0.20 0.21 0.22 0.22 0.25 0.27 0.29 0.29 0.28 0.28 0.26 0.25 0.23 0.23 0.23 0.26 0.28 0.43 0.55 0.67
0.18 0.19 0.28 0.26 0.24 0.20 0.17 0.12 0.16 0.10 0.11 0.08 0.09 0.11 0.13 0.16 0.14 0.14 0.14 0.14 0.13 0.14 0.15 0.16 0.19 0.23 0.25 0.26 0.26 0.28 0.30 0.31 0.36 0.41 0.42 0.38 0.33 0.29 0.27 0.27 0.30 0.26 0.32 0.39
0.23 0.19 0.25 0.24 0.23 0.22 0.17 0.19 0.11 0.11 0.06 0.05 0.07 0.07 0.06 0.10 0.12 0.12 0.11 0.11 0.11 0.12 0.12 0.12 0.16 0.21 0.24 0.28 0.31 0.32 0.32 0.35 0.43 0.49 0.50 0.47 0.40 0.35 0.32 0.30 0.29 0.30 0.29 0.30
0.26 0.20 0.21 0.22 0.17 0.14 0.15 0.13 0.13 0.12 0.10 0.06 0.05 0.06 0.10 0.11 0.12 0.11 0.10 0.10 0.10 0.11 0.12 0.12 0.13 0.18 0.23 0.28 0.30 0.37 0.39 0.41 0.35 0.31 0.32 0.33 0.35 0.33 0.29 0.27 0.24 0.25 0.28 0.33
0.27 0.19 0.17 0.17 0.19 0.18 0.17 0.13 0.13 0.08 0.08 0.10 0.09 0.07 0.13 0.13 0.13 0.11 0.10 0.10 0.11 0.12 0.12 0.13 0.15 0.18 0.23 0.27 0.29 0.29 0.29 0.27 0.26 0.25 0.25 0.26 0.28 0.29 0.28 0.26 0.26 0.23 0.23 0.26
0.25 0.18 0.15 0.13 0.15 0.17 0.14 0.15 0.15 0.13 0.12 0.08 0.07 0.06 0.12 0.12 0.11 0.11 0.10 0.11 0.12 0.12 0.13 0.15 0.17 0.19 0.22 0.24 0.25 0.24 0.26 0.31 0.31 0.31 0.29 0.25 0.24 0.24 0.25 0.26 0.25 0.25 0.23 0.21
0.26 0.19 0.16 0.11 0.11 0.13 0.11 0.12 0.13 0.12 0.09 0.08 0.08 0.07 0.08 0.09 0.09 0.09 0.11 0.12 0.13 0.15 0.16 0.16 0.16 0.17 0.19 0.22 0.22 0.23 0.25 0.28 0.27 0.23 0.22 0.21 0.22 0.23 0.24 0.24 0.25 0.24 0.26 0.23
0.24 0.17 0.17 0.14 0.14 0.13 0.11 0.10 0.11 0.10 0.10 0.08 0.07 0.07 0.07 0.09 0.09 0.10 0.12 0.14 0.14 0.14 0.15 0.16 0.17 0.19 0.19 0.19 0.21 0.22 0.21 0.20 0.21 0.20 0.19 0.20 0.20 0.22 0.22 0.22 0.21 0.24 0.25 0.24
0.25 0.18 0.17 0.13 0.14 0.13 0.11 0.11 0.12 0.12 0.12 0.10 0.09 0.07 0.10 0.10 0.11 0.11 0.12 0.13 0.14 0.15 0.16 0.17 0.18 0.19 0.19 0.18 0.19 0.19 0.19 0.19 0.19 0.17 0.17 0.18 0.18 0.18 0.19 0.20 0.22 0.20 0.22 0.23
0.23 0.18 0.15 0.11 0.13 0.11 0.09 0.10 0.10 0.10 0.11 0.09 0.06 0.07 0.10 0.09 0.10 0.11 0.12 0.14 0.15 0.16 0.16 0.17 0.18 0.19 0.20 0.20 0.20 0.19 0.19 0.20 0.19 0.18 0.17 0.17 0.18 0.17 0.17 0.17 0.18 0.20 0.21 0.21
0.21 0.18 0.15 0.12 0.12 0.08 0.11 0.13 0.11 0.10 0.10 0.09 0.08 0.09 0.10 0.10 0.12 0.14 0.15 0.15 0.14 0.14 0.15 0.16 0.17 0.19 0.20 0.20 0.21 0.21 0.20 0.20 0.19 0.18 0.17 0.18 0.18 0.17 0.17 0.17 0.16 0.16 0.18 0.20
0.23 0.18 0.14 0.11 0.10 0.11 0.11 0.12 0.11 0.10 0.08 0.09 0.08 0.09 0.11 0.12 0.13 0.13 0.15 0.16 0.14 0.14 0.14 0.16 0.17 0.17 0.17 0.17 0.18 0.19 0.19 0.20 0.19 0.18 0.17 0.18 0.18 0.17 0.16 0.16 0.17 0.17 0.17 0.17
0.22 0.19 0.14 0.12 0.10 0.08 0.11 0.13 0.14 0.13 0.07 0.09 0.09 0.09 0.11 0.12 0.08 0.09 0.14 0.15 0.14 0.14 0.14 0.15 0.15 0.15 0.15 0.16 0.16 0.16 0.15 0.16 0.17 0.18 0.18 0.18 0.18 0.17 0.16 0.16 0.16 0.17 0.18 0.17
0.19 0.17 0.13 0.13 0.11 0.11 0.14 0.14 0.15 0.08 0.06 0.10 0.10 0.11 0.11 0.10 0.11 0.13 0.14 0.13 0.12 0.12 0.13 0.14 0.13 0.13 0.13 0.13 0.12 0.12 0.12 0.12 0.14 0.16 0.16 0.17 0.17 0.17 0.17 0.17 0.17 0.17 0.17 0.17
0.17 0.16 0.14 0.13 0.12 0.10 0.16 0.15 0.11 0.10 0.11 0.11 0.12 0.12 0.11 0.12 0.13 0.12 0.11 0.11 0.11 0.11 0.11 0.11 0.11 0.11 0.12 0.12 0.12 0.11 0.11 0.12 0.12 0.13 0.14 0.15 0.15 0.16 0.16 0.16 0.16 0.16 0.16 0.16
0.16 0.18 0.15 0.14 0.13 0.17 0.17 0.15 0.15 0.14 0.11 0.12 0.12 0.13 0.12 0.12 0.11 0.11 0.10 0.10 0.10 0.10 0.11 0.12 0.12 0.12 0.13 0.13 0.13 0.12 0.12 0.13 0.13 0.12 0.13 0.14 0.15 0.15 0.15 0.14 0.15 0.14 0.15 0.14
0.20 0.21 0.17 0.16 0.17 0.17 0.17 0.18 0.16 0.15 0.13 0.13 0.13 0.12 0.12 0.11 0.10 0.09 0.09 0.10 0.10 0.11 0.11 0.12 0.12 0.12 0.12 0.13 0.13 0.12 0.12 0.13 0.13 0.13 0.13 0.13 0.13 0.14 0.14 0.13 0.13 0.13 0.13 0.12
0.21 0.21 0.18 0.17 0.19 0.19 0.18 0.17 0.16 0.14 0.14 0.13 0.12 0.12 0.12 0.11 0.09 0.09 0.09 0.10 0.10 0.11 0.11 0.12 0.12 0.12 0.12 0.12 0.12 0.12 0.12 0.12 0.11 0.12 0.12 0.13 0.13 0.14 0.13 0.13 0.12 0.12 0.12 0.13
0.22 0.20 0.19 0.17 0.19 0.17 0.15 0.16 0.15 0.13 0.12 0.12 0.12 0.12 0.12 0.10 0.08 0.09 0.09 0.10 0.10 0.10 0.11 0.11 0.11 0.12 0.12 0.12 0.12 0.12 0.12 0.12 0.11 0.11 0.11 0.12 0.12 0.13 0.13 0.13 0.13 0.13 0.13 0.13